1273276827031,3.12889
1273276887031,3.12983
1273276947031,3.13604
1273277007031,3.12645
1273277067031,3.14090
1273277127031,3.15459
1273277187031,3.12315
1273277247031,3.11604
1273277307031,3.14214
1273277367031,3.12056
1273277427031,3.11095
1273277487031,3.14130
1273277547031,3.12085
1273277607031,3.12494
1273277667031,3.18325
1273277727031,3.12447
1273277787031,3.15543
1273277847031,3.13984
1273277907031,3.13686
1273277967031,3.14572
1273278027031,3.12160
1273278087031,3.17499
1273278147031,3.12616
1273278207031,3.12917
1273278267031,3.14781
1273278327031,3.15475
1273278387031,3.12295
1273278447031,3.16026
1273278507031,3.13799
1273278567031,3.14821
1273278627031,3.14883
1273278687031,3.15962
1273278747031,3.12025
1273278807031,3.11032
1273278867031,3.13748
1273278927031,3.14104
1273278987031,3.15022
1273279047031,3.14150
1273279107031,3.14487
1273279167031,3.13972
1273279227031,3.18128
1273279287031,3.14770
1273279347031,3.15671
1273279407031,3.15842
1273279467031,3.17220
1273279527031,3.15248
1273279587031,3.13294
1273279647031,3.15169
1273279707031,3.15407
1273279767031,3.12059
1273279827031,3.15351
1273279887031,3.17341
1273279947031,3.14379
1273280007031,3.16351
1273280067031,3.13880
1273280127031,3.16777
1273280187031,3.14508
1273280247031,3.16070
1273280307031,3.15950
1273280367031,3.17853
1273280427041,3.18365
1273280487041,3.18183
1273280547041,3.18430
1273280607041,3.16047
1273280667041,3.17399
1273280727041,3.16845
1273280787041,3.19917
1273280847041,3.18243
1273280907041,3.18885
1273280967041,3.19371
1273281027041,3.19990
1273281087041,3.17553
1273281147041,3.18600
1273281207041,3.19422
1273281267041,3.14156
1273281327041,3.17498
1273281387041,3.17529
1273281447041,3.16413
1273281507041,3.17500
1273281567041,3.21280
1273281627041,3.20589
1273281687041,3.16127
1273281747041,3.19081
1273281807041,3.16388
1273281867041,3.13231
1273281927041,3.15854
1273281987041,3.21179
1273282047041,3.15299
1273282107041,3.17924
1273282167041,3.17513
1273282227041,3.17423
1273282287041,3.15791
1273282347041,3.18617
1273282407041,3.20500
1273282467041,3.19207
1273282527041,3.20166
1273282587041,3.21439
1273282647041,3.22913
1273282707041,3.27424
1273282767041,3.25510
1273282827041,3.26687
1273282887041,3.21744
1273282947041,3.20543
1273283007041,3.20934
1273283067041,3.20366
1273283127041,3.18642
1273283187041,3.20566
1273283247041,3.21244
1273283307041,3.20506
1273283367041,3.21594
1273283427041,3.19878
1273283487041,3.20822
1273283547041,3.19294
1273283607041,3.19264
1273283667041,3.17844
1273283727041,3.20035
1273283787041,3.12720
1273283847041,3.18953
1273283907041,3.17746
1273283967041,3.16070
1273284027051,3.17203
1273284087051,3.14682
1273284147051,3.13910
1273284207051,3.16600
1273284267051,3.16915
1273284327051,3.17321
1273284387051,3.17405
1273284447051,3.15038
1273284507051,3.16632
1273284567051,3.15692
1273284627051,3.14672
1273284687051,3.17517
1273284747051,3.12343
1273284807051,3.16025
1273284867051,3.11618
1273284927051,3.18660
1273284987051,3.17958
1273285047051,3.14735
1273285107051,3.16641
1273285167051,3.14784
1273285227051,3.15933
1273285287051,3.16885
1273285347051,3.15033
1273285407051,3.12427
1273285467051,3.19747
1273285527051,3.26158
1273285587051,3.17025
1273285647051,3.16125
1273285707051,3.17652
1273285767051,3.15202
1273285827051,3.15434
1273285887051,3.17637
1273285947051,3.15263
1273286007051,3.14120
1273286067051,3.17760
1273286127051,3.16024
1273286187051,3.18069
1273286247051,3.13749
1273286307051,3.11668
1273286367051,3.16259
1273286427051,3.12903
1273286487051,3.12270
1273286547051,3.17030
1273286607051,3.15088
1273286667051,3.16499
1273286727051,3.16033
1273286787051,3.14757
1273286847051,3.14605
1273286907051,3.17006
1273286967051,3.13104
1273287027051,3.14455
1273287087051,3.15845
1273287147051,3.15581
1273287207051,3.14615
1273287267051,3.14080
1273287327051,3.14798
1273287387051,3.14922
1273287447051,3.16661
1273287507051,3.17879
1273287567051,3.15516
1273287627060,3.15368
1273287687060,3.17650
1273287747060,3.16295
1273287807060,3.16488
1273287867060,3.17791
1273287927060,3.16197
1273287987060,3.14590
1273288047060,3.14213
1273288107060,3.13302
1273288167060,3.12982
1273288227060,3.14772
1273288287060,3.13647
1273288347060,3.16566
1273288407060,3.13387
1273288467060,3.14070
1273288527060,3.12449
1273288587060,3.14068
1273288647060,3.16048
1273288707060,3.17538
1273288767060,3.17351
1273288827060,3.16515
1273288887060,3.19553
1273288947060,3.18296
1273289007060,3.19912
1273289067060,3.21448
1273289127060,3.17759
1273289187060,3.14510
1273289247060,3.13881
1273289307060,3.20612
1273289367060,3.13954
1273289427060,3.17461
1273289487060,3.15622
1273289547060,3.15863
1273289607060,3.17184
1273289667060,3.17107
1273289727060,3.14524
1273289787060,3.18259
1273289847060,3.16963
1273289907060,3.12018
1273289967060,3.14136
1273290027060,3.11455
1273290087060,3.17000
1273290147060,3.18031
1273290207060,3.13343
1273290267060,3.15097
1273290327060,3.14093
1273290387060,3.15655
1273290447060,3.11511
1273290507060,3.15344
1273290567060,3.18064
1273290627060,3.16955
1273290687060,3.14526
1273290747060,3.15338
1273290807060,3.15347
1273290867060,3.13760
1273290927060,3.15427
1273290987060,3.16009
1273291047060,3.14996
1273291107060,3.16709
1273291167060,3.12386
1273291227069,3.11527
1273291287069,3.16300
1273291347069,3.16698
1273291407069,3.14759
1273291467069,3.13712
1273291527069,3.15505
1273291587069,3.15532
1273291647069,3.15150
1273291707069,3.14772
1273291767069,3.14574
1273291827069,3.17184
1273291887069,3.15872
1273291947069,3.15238
1273292007069,3.15615
1273292067069,3.14376
1273292127069,3.13773
1273292187069,3.13242
1273292247069,3.16513
1273292307069,3.14160
1273292367069,3.15740
1273292427069,3.16539
1273292487069,3.15592
1273292547069,3.16359
1273292607069,3.15603
1273292667069,3.12204
1273292727069,3.13863
1273292787069,3.14357
1273292847069,3.15606
1273292907069,3.15488
1273292967069,3.16356
1273293027069,3.14915
1273293087069,3.17775
1273293147069,3.15411
1273293207069,3.15011
1273293267069,3.16769
1273293327069,3.15421
1273293387069,3.14801
1273293447069,3.18154
1273293507069,3.17945
1273293567069,3.12859
1273293627069,3.15781
1273293687069,3.17138
1273293747069,3.13065
1273293807069,3.12383
1273293867069,3.16108
1273293927069,3.11477
1273293987069,3.14005
1273294047069,3.16103
1273294107069,3.15468
1273294167069,3.11345
1273294227069,3.15132
1273294287069,3.14205
1273294347069,3.14825
1273294407069,3.14502
1273294467069,3.12984
1273294527069,3.25862
1273294587069,3.53098
1273294647069,3.84026
1273294707069,4.11614
1273294767069,4.25541
1273294827078,4.30583
1273294887078,4.13369
1273294947078,4.02576
1273295007078,3.89190
1273295067078,3.79034
1273295127078,3.75995
1273295187078,3.66260
1273295247078,3.60158
1273295307078,3.58035
1273295367078,3.48911
1273295427078,3.42712
1273295487078,3.36782
1273295547078,3.34537
1273295607078,3.27329
1273295667078,3.29934
1273295727078,3.30169
1273295787078,3.24725
1273295847078,3.25388
1273295907078,3.24794
1273295967078,3.24094
1273296027078,3.21795
1273296087078,3.22937
1273296147078,3.25375
1273296207078,3.22691
1273296267078,3.22457
1273296327078,3.18149
1273296387078,3.22792
1273296447078,3.16986
1273296507078,3.19985
1273296567078,3.15677
1273296627078,3.19225
1273296687078,3.18121
1273296747078,3.13736
1273296807078,3.14624
1273296867078,3.15572
1273296927078,3.14229
1273296987078,3.14437
1273297047078,3.13193
1273297107078,3.16545
1273297167078,3.13530
1273297227078,3.18212
1273297287078,3.11385
1273297347078,3.13134
1273297407078,3.12068
1273297467078,3.13577
1273297527078,3.14322
1273297587078,3.13186
1273297647078,3.10474
1273297707078,3.12199
1273297767078,3.11860
1273297827078,3.11319
1273297887078,3.12815
1273297947078,3.13594
1273298007078,3.12091
1273298067078,3.12044
1273298127078,3.12144
1273298187078,3.14793
1273298247078,3.11850
1273298307078,3.13986
1273298367078,3.11156
1273298427087,3.13406
1273298487087,3.11785
1273298547087,3.12384
1273298607087,3.14004
1273298667087,3.13974
1273298727087,3.13098
1273298787087,3.16366
1273298847087,3.13131
1273298907087,3.11374
1273298967087,3.10922
1273299027087,3.12737
1273299087087,3.11792
1273299147087,3.10039
1273299207087,3.14635
1273299267087,3.11959
1273299327087,3.11654
1273299387087,3.10480
1273299447087,3.11458
1273299507087,3.11531
1273299567087,3.11516
1273299627087,3.10200
1273299687087,3.09553
1273299747087,3.12559
1273299807087,3.13109
1273299867087,3.12302
1273299927087,3.13819
1273299987087,3.12171
1273300047087,3.09327
1273300107087,3.11796
1273300167087,3.09581
1273300227087,3.13698
1273300287087,3.13747
1273300347087,3.11907
1273300407087,3.12060
1273300467087,3.12953
1273300527087,3.11829
1273300587087,3.13341
1273300647087,3.08731
1273300707087,3.14177
1273300767087,3.10510
1273300827087,3.11065
1273300887087,3.10744
1273300947087,3.09590
1273301007087,3.13852
1273301067087,3.11813
1273301127087,3.13217
1273301187087,3.13853
1273301247087,3.14027
1273301307087,3.12733
1273301367087,3.12498
1273301427087,3.12866
1273301487087,3.12032
1273301547087,3.14060
1273301607087,3.12665
1273301667087,3.10861
1273301727087,3.13001
1273301787087,3.13889
1273301847087,3.11823
1273301907087,3.44228
1273301967087,3.13181
1273302027096,3.12751
1273302087096,3.12171
1273302147096,3.13634
1273302207096,3.13019
1273302267096,3.12681
1273302327096,3.09023
1273302387096,3.09609
1273302447096,3.08368
1273302507096,3.12256
1273302567096,3.09350
1273302627096,3.11962
1273302687096,3.12295
1273302747096,3.08345
1273302807096,3.12652
1273302867096,3.10351
1273302927096,3.14413
1273302987096,3.11260
1273303047096,3.14918
1273303107096,3.12306
1273303167096,3.10214
1273303227096,3.13153
1273303287096,3.13566
1273303347096,3.13597
1273303407096,3.11680
1273303467096,3.10546
1273303527096,3.12237
1273303587096,3.13288
1273303647096,3.10531
1273303707096,3.09165
1273303767096,3.09583
1273303827096,3.10799
1273303887096,3.09874
1273303947096,3.14260
1273304007096,3.10087
1273304067096,3.10789
1273304127096,3.12099
1273304187096,3.12539
1273304247096,3.13378
1273304307096,3.13072
1273304367096,3.12045
1273304427096,3.11284
1273304487096,3.11348
1273304547096,3.12241
1273304607096,3.13277
1273304667096,3.12644
1273304727096,3.12731
1273304787096,3.11185
1273304847096,3.11244
1273304907096,3.16689
1273304967096,3.10856
1273305027096,3.14633
1273305087096,3.13047
1273305147096,3.12631
1273305207096,3.15775
1273305267096,3.13257
1273305327096,3.11434
1273305387096,3.12006
1273305447096,3.12941
1273305507096,3.10703
1273305567096,3.10153
1273305627105,3.14046
1273305687105,3.14116
1273305747105,3.15911
1273305807105,3.14069
1273305867105,3.16706
1273305927105,3.14526
1273305987105,3.14074
1273306047105,3.15794
1273306107105,3.12582
1273306167105,3.13771
1273306227105,3.13282
1273306287105,3.14754
1273306347105,3.15648
1273306407105,3.16757
1273306467105,3.13509
1273306527105,3.15543
1273306587105,3.14520
1273306647105,3.12107
1273306707105,3.14827
1273306767105,3.16468
1273306827105,3.15123
1273306887105,3.15569
1273306947105,3.15679
1273307007105,3.14257
1273307067105,3.16836
1273307127105,3.17045
1273307187105,3.13776
1273307247105,3.11095
1273307307105,3.12086
1273307367105,3.13114
1273307427105,3.15591
1273307487105,3.15268
1273307547105,3.15678
1273307607105,3.12065
1273307667105,3.13564
1273307727105,3.12571
1273307787105,3.14877
1273307847105,3.16577
1273307907105,3.14459
1273307967105,3.14604
1273308027105,3.16654
1273308087105,3.16314
1273308147105,3.16055
1273308207105,3.14386
1273308267105,3.15176
1273308327105,3.13116
1273308387105,3.17963
1273308447105,3.13855
1273308507105,3.13946
1273308567105,3.17619
1273308627105,3.17466
1273308687105,3.17532
1273308747105,3.15187
1273308807105,3.13452
1273308867105,3.16933
1273308927105,3.16296
1273308987105,3.14571
1273309047105,3.15869
1273309107105,3.16467
1273309167105,3.16224
1273309227114,3.15159
1273309287114,3.15823
1273309347114,3.15385
1273309407114,3.13171
1273309467114,3.16074
1273309527114,3.16421
1273309587114,3.14439
1273309647114,3.15287
1273309707114,3.15424
1273309767114,3.22798
1273309827114,3.16069
1273309887114,3.16330
1273309947114,3.16438
1273310007114,3.16027
1273310067114,3.15049
1273310127114,3.15835
1273310187114,3.15529
1273310247114,3.16924
1273310307114,3.18499
1273310367114,3.19509
1273310427114,3.16873
1273310487114,3.19397
1273310547114,3.17539
1273310607114,3.18966
1273310667114,3.17584
1273310727114,3.17423
1273310787114,3.18004
1273310847114,3.22106
1273310907114,3.16663
1273310967114,3.15180
1273311027114,3.17715
1273311087114,3.17126
1273311147114,3.16704
1273311207114,3.16058
1273311267114,3.16549
1273311327114,3.18751
1273311387114,3.14117
1273311447114,3.18970
1273311507114,3.14845
1273311567114,3.15314
1273311627114,3.19110
1273311687114,3.15680
1273311747114,3.17197
1273311807114,3.13959
1273311867114,3.15328
1273311927114,3.15281
1273311987114,3.13885
1273312047114,3.14227
1273312107114,3.14574
1273312167114,3.17587
1273312227114,3.14979
1273312287114,3.13725
1273312347114,3.15167
1273312407114,3.15090
1273312467114,3.16570
1273312527114,3.16745
1273312587114,3.17384
1273312647114,3.15267
1273312707114,3.19457
1273312767114,3.12991
1273312827122,3.12700
1273312887122,3.17097
1273312947122,3.14582
1273313007122,3.12149
1273313067122,3.15647
1273313127122,3.15244
1273313187122,3.14293
1273313247122,3.15248
1273313307122,3.15548
1273313367122,3.14034
1273313427122,3.16932
1273313487122,3.15113
1273313547122,3.18972
1273313607122,3.20277
1273313667122,3.14380
1273313727122,3.19179
1273313787122,3.16752
1273313847122,3.18916
1273313907122,3.18360
1273313967122,3.17143
1273314027122,3.17716
1273314087122,3.22520
1273314147122,3.15117
1273314207122,3.18133
1273314267122,3.14829
1273314327122,3.16315
1273314387122,3.13812
1273314447122,3.16168
1273314507122,3.14610
1273314567122,3.17391
1273314627122,3.13276
1273314687122,3.16358
1273314747122,3.11979
1273314807122,3.15429
1273314867122,3.13045
1273314927122,3.14016
1273314987122,3.16413
1273315047122,3.17510
1273315107122,3.12698
1273315167122,3.14031
1273315227122,3.11264
1273315287122,3.16523
1273315347122,3.15104
1273315407122,3.12829
1273315467122,3.13919
1273315527122,3.14851
1273315587122,3.15636
1273315647122,3.13000
1273315707122,3.14842
1273315767122,3.15596
1273315827122,3.17137
1273315887122,3.13598
1273315947122,3.14515
1273316007122,3.12174
1273316067122,3.15987
1273316127122,3.13016
1273316187122,3.14110
1273316247122,3.14658
1273316307122,3.17861
1273316367122,3.15332
1273316427131,3.12399
1273316487131,3.10352
1273317027131,3.16345
1273317087131,3.14580
1273317147131,3.16567
1273317207131,3.13012
1273317267131,3.14873
1273317327131,3.11509
1273317387131,3.14760
1273317447131,3.16847
1273317507131,3.14744
1273317567131,3.13660
1273317627131,3.11495
1273317687131,3.18896
1273317747131,3.16778
1273317807131,3.13993
1273317867131,3.15096
1273317927131,3.13960
1273317987131,3.12485
1273318047131,3.14608
1273318107131,3.11956
1273318167131,3.13038
1273318227131,3.15487
1273318287131,3.14751
1273318347131,3.15348
1273318407131,3.13951
1273318467131,3.15615
1273318527131,3.14876
1273318587131,3.15492
1273318647131,3.14130
1273318707131,3.17492
1273318767131,3.13985
1273318827131,3.15886
1273318887131,3.12781
1273318947131,3.13591
1273319007131,3.15294
1273319067131,3.17720
1273319127131,3.27898
1273319187131,3.30056
1273319247131,3.25321
1273319307131,3.29021
1273319367131,3.32592
1273319427131,3.41012
1273319487131,3.40576
1273319547131,3.38090
1273319607131,3.28416
1273319667131,3.22406
1273319727131,3.18847
1273319787131,3.19449
1273319847131,3.13887
1273319907131,3.18759
1273319967131,3.17907
1273320027140,3.17309
1273320087140,3.17076
1273320147140,3.16166
1273320207140,3.15512
1273320267140,3.16600
1273320327140,3.18896
1273320387140,3.17550
1273320447140,3.13358
1273320507140,3.15625
1273320567140,3.16024
1273320627140,3.14960
1273320687140,3.17117
1273320747140,3.17292
1273320807140,3.15127
1273320867140,3.13516
1273320927140,3.14973
1273320987140,3.13307
1273321047140,3.15944
1273321107140,3.13164
1273321167140,3.13678
1273321227140,3.12682
1273321287140,3.14402
1273321347140,3.13499
1273321407140,3.15108
1273321467140,3.14636
1273321527140,3.11784
1273321587140,3.17172
1273321647140,3.12267
1273321707140,3.11608
1273321767140,3.15835
1273321827140,3.13512
1273321887140,3.12977
1273321947140,3.13665
1273322007140,3.14332
1273322067140,3.13104
1273322127140,3.14030
1273322187140,3.12844
1273322247140,3.12542
1273322307140,3.15681
1273322367140,3.12836
1273322427140,3.16005
1273322487140,3.14754
1273322547140,3.14332
1273322607140,3.14666
1273322667140,3.15269
1273322727140,3.13705
1273322787140,3.16940
1273322847140,3.17299
1273322907140,3.14015
1273322967140,3.19445
1273323027140,3.16881
1273323087140,3.16093
1273323147140,3.16630
1273323207140,3.17290
1273323267140,3.16016
1273323327140,3.14438
1273323387140,3.13468
1273323447140,3.14240
1273323507140,3.17799
1273323567140,3.18599
1273323627149,3.15612
1273323687149,3.15303
1273323747149,3.16774
1273323807149,3.16094
1273323867149,3.18865
1273323927149,3.18068
1273323987149,3.17065
1273324047149,3.17979
1273324107149,3.18147
1273324167149,3.18723
1273324227149,3.19259
1273324287149,3.18465
1273324347149,3.15649
1273324407149,3.16896
1273324467149,3.19338
1273324527149,3.16920
1273324587149,3.16298
1273324647149,3.16515
1273324707149,3.16687
1273324767149,3.15154
1273324827149,3.19186
1273324887149,3.17378
1273324947149,3.12047
1273325007149,3.15226
1273325067149,3.12777
1273325127149,3.16289
1273325187149,3.13547
1273325247149,3.15475
1273325307149,3.14812
1273325367149,3.12625
1273325427149,3.10907
1273325487149,3.12502
1273325547149,3.11850
1273325607149,3.11711
1273325667149,3.14061
1273325727149,3.15613
1273325787149,3.15749
1273325847149,3.13719
1273325907149,3.12435
1273325967149,3.16023
1273326027149,3.14708
1273326087149,3.14982
1273326147149,3.12691
1273326207149,3.14578
1273326267149,3.13144
1273326327149,3.12070
1273326387149,3.13546
1273326447149,3.11883
1273326507149,3.11243
1273326567149,3.12894
1273326627149,3.13653
1273326687149,3.14062
1273326747149,3.13726
1273326807149,3.14067
1273326867149,3.11795
1273326927149,3.15193
1273326987149,3.12824
1273327047149,3.15218
1273327107149,3.12841
1273327167149,3.13355
1273327227157,3.15570
1273327287157,3.14790
1273327347157,3.14384
1273327407157,3.12168
1273327467157,3.16382
1273327527157,3.14444
1273327587157,3.17293
1273327647157,3.11367
1273327707157,3.15390
1273327767157,3.13974
1273327827157,3.16046
1273327887157,3.14206
1273327947157,3.12009
1273328007157,3.14449
1273328067157,3.10188
1273328127157,3.13041
1273328187157,3.14005
1273328247157,3.14248
1273328307157,3.13029
1273328367157,3.12955
1273328427157,3.13690
1273328487157,3.12962
1273328547157,3.14216
1273328607157,3.16563
1273328667157,3.15595
1273328727157,3.14258
1273328787157,3.15527
1273328847157,3.15467
1273328907157,3.15473
1273328967157,3.11288
1273329027157,3.15508
1273329087157,3.13758
1273329147157,3.14728
1273329207157,3.14352
1273329267157,3.13176
1273329327157,3.13133
1273329387157,3.13688
1273329447157,3.13951
1273329507157,3.14495
1273329567157,3.13852
1273329627157,3.14040
1273329687157,3.14021
1273329747157,3.13874
1273329807157,3.11869
1273329867157,3.14687
1273329927157,3.13651
1273329987157,3.15838
1273330047157,3.12809
1273330107157,3.13496
1273330167157,3.12539
1273330227157,3.15011
1273330287157,3.12067
1273330347157,3.13137
1273330407157,3.13063
1273330467157,3.12630
1273330527157,3.13557
1273330587157,3.13716
1273330647157,3.12701
1273330707157,3.14106
1273330767157,3.15215
1273330827166,3.16813
1273330887166,3.12462
1273330947166,3.11783
1273331007166,3.11266
1273331067166,3.12617
1273331127166,3.12583
1273331187166,3.13668
1273331247166,3.13836
1273331307166,3.12159
1273331367166,3.13061
1273331427166,3.15970
1273331487166,3.14120
1273331547166,3.17185
1273331607166,3.12943
1273331667166,3.14876
1273331727166,3.12623
1273331787166,3.14230
1273331847166,3.11400
1273331907166,3.13267
1273331967166,3.13369
1273332027166,3.10107
1273332087166,3.10993
1273332147166,3.12709
1273332207166,3.17010
1273332267166,3.13837
1273332327166,3.16413
1273332387166,3.11962
1273332447166,3.13743
1273332507166,3.11635
1273332567166,3.16201
1273332627166,3.13020
1273332687166,3.15932
1273332747166,3.13743
1273332807166,3.14197
1273332867166,3.12877
1273332927166,3.14846
1273332987166,3.12241
1273333047166,3.13727
1273333107166,3.14967
1273333167166,3.14790
1273333227166,3.13077
1273333287166,3.11198
1273333347166,3.13069
1273333407166,3.14448
1273333467166,3.15320
1273333527166,3.12070
1273333587166,3.14954
1273333647166,3.20212
1273333707166,3.15987
1273333767166,3.16040
1273333827166,3.12604
1273333887166,3.15519
1273333947166,3.14240
1273334007166,3.14337
1273334067166,3.15536
1273334127166,3.13655
1273334187166,3.14811
1273334247166,3.13716
1273334307166,3.16790
1273334367166,3.15787
1273334427174,3.14526
1273334487174,3.15373
1273334547174,3.17914
1273334607174,3.16358
1273334667174,3.14168
1273334727174,3.15878
1273334787174,3.16430
1273334847174,3.15153
1273334907174,3.12992
1273334967174,3.16453
1273335027174,3.14370
1273335087174,3.16185
1273335147174,3.16701
1273335207174,3.16343
1273335267174,3.16944
1273335327174,3.12365
1273335387174,3.17124
1273335447174,3.15760
1273335507174,3.16434
1273335567174,3.17280
1273335627174,3.21549
1273335687174,3.16357
1273335747174,3.16831
1273335807174,3.18380
1273335867174,3.15228
1273335927174,3.17200
1273335987174,3.15676
1273336047174,3.17527
1273336107174,3.17859
1273336167174,3.18828
1273336227174,3.16963
1273336287174,3.15519
1273336347174,3.18429
1273336407174,3.18473
1273336467174,3.18691
1273336527174,3.16296
1273336587174,3.18603
1273336647174,3.16162
1273336707174,3.17442
1273336767174,3.17728
1273336827174,3.17813
1273336887174,3.18674
1273336947174,3.18266
1273337007174,3.15613
1273337067174,3.20210
1273337127174,3.16732
1273337187174,3.20004
1273337247174,3.18379
1273337307174,3.19452
1273337367174,3.19183
1273337427174,3.18789
1273337487174,3.16009
1273337547174,3.17215
1273337607174,3.18856
1273337667174,3.18052
1273337727174,3.15920
1273337787174,3.17381
1273337847174,3.15155
1273337907174,3.18328
1273337967174,3.20545
1273338027182,3.18901
1273338087182,3.18139
1273338147182,3.17741
1273338207182,3.15588
1273338267182,3.21426
1273338327182,3.18333
1273338387182,3.15975
1273338447182,3.17785
1273338507182,3.18596
1273338567182,3.16663
1273338627182,3.19498
1273338687182,3.20589
1273338747182,3.18468
1273338807182,3.20878
1273338867182,3.19980
1273338927182,3.20539
1273338987182,3.19372
1273339047182,3.19978
1273339107182,3.18860
1273339167182,3.20455
1273339227182,3.17701
1273339287182,3.19235
1273339347182,3.22904
1273339407182,3.18113
1273339467182,3.21808
1273339527182,3.18751
1273339587182,3.19901
1273339647182,3.21464
1273339707182,3.22413
1273339767182,3.21123
1273339827182,3.19076
1273339887182,3.17550
1273339947182,3.21408
1273340007182,3.17616
1273340067182,3.21978
1273340127182,3.21036
1273340187182,3.16904
1273340247182,3.21613
1273340307182,3.18504
1273340367182,3.21257
1273340427182,3.17094
1273340487182,3.17642
1273340547182,3.18188
1273340607182,3.21566
1273340667182,3.19060
1273340727182,3.23172
1273340787182,3.18992
1273340847182,3.20020
1273340907182,3.20533
1273340967182,3.23926
1273341027182,3.20652
1273341087182,3.21775
1273341147182,3.21705
1273341207182,3.23260
1273341267182,3.21355
1273341327182,3.21251
1273341387182,3.21789
1273341447182,3.20052
1273341507182,3.22452
1273341567182,3.22355
1273341627191,3.20600
1273341687191,3.21956
1273341747191,3.22177
1273341807191,3.18848
1273341867191,3.21019
1273341927191,3.21927
1273341987191,3.20223
1273342047191,3.16074
1273342107191,3.23340
1273342167191,3.18731
1273342227191,3.21318
1273342287191,3.16586
1273342347191,3.16456
1273342407191,3.19505
1273342467191,3.19962
1273342527191,3.16372
1273342587191,3.20257
1273342647191,3.19948